• In Uzbekistan
  • List of Countries
  • For 7 days
  • Water Temperature
  • Satellite Maps
  • Weather Map
  • Weather Widgets
  • user-avatar
    Login

    Hourly Weather Abovyan

    Today, 23 November, Thursday

    Time Temperature Precipitation Wind Pressure Humidity
    00:00 +1°C° 0 mm 1 mps 665 mmHg 72%
    01:00 +1°C° 0.1 mm 1 mps 665 mmHg 71%
    02:00 0°C° 0.1 mm 1 mps 666 mmHg 69%
    03:00 0°C° 0.1 mm 1 mps 666 mmHg 68%
    04:00 -2°C° 0.1 mm 2 mps 666 mmHg 69%
    05:00 -2°C° 0.1 mm 2 mps 666 mmHg 69%
    06:00 -2°C° 0.1 mm 2 mps 666 mmHg 70%
    07:00 -1°C° 0.1 mm 2 mps 667 mmHg 68%
    08:00 -1°C° 0.1 mm 3 mps 667 mmHg 67%
    09:00 0°C° 0.1 mm 3 mps 667 mmHg 66%
    10:00 0°C° 0.2 mm 3 mps 667 mmHg 64%
    11:00 +1°C° 0.2 mm 3 mps 667 mmHg 61%
    12:00 +1°C° 0.2 mm 4 mps 666 mmHg 59%
    13:00 +2°C° 0.1 mm 3 mps 666 mmHg 59%
    14:00 +2°C° 0.1 mm 3 mps 666 mmHg 59%
    15:00 +2°C° 0.1 mm 3 mps 666 mmHg 59%
    16:00 +2°C° 0.2 mm 2 mps 667 mmHg 63%
    17:00 +2°C° 0.2 mm 2 mps 667 mmHg 67%
    18:00 +1°C° 0.2 mm 2 mps 668 mmHg 70%
    19:00 +2°C° 0.3 mm 1 mps 668 mmHg 72%
    20:00 +1°C° 0.3 mm 1 mps 668 mmHg 74%
    21:00 +1°C° 0.3 mm 1 mps 669 mmHg 76%
    22:00 0°C° 0.1 mm 1 mps 669 mmHg 77%
    23:00 0°C° 0.1 mm 1 mps 669 mmHg 79%

    Tomorrow, 24 November, Friday

    Time Temperature Precipitation Wind Pressure Humidity
    00:00 0°C° 0.1 mm 1 mps 669 mmHg 80%
    01:00 -1°C° 0.1 mm 1 mps 669 mmHg 78%
    02:00 -1°C° 0.1 mm 1 mps 669 mmHg 76%
    03:00 -2°C° 0.1 mm 1 mps 669 mmHg 75%
    04:00 -2°C° 0 mm 1 mps 669 mmHg 73%
    05:00 -2°C° 0 mm 1 mps 669 mmHg 72%
    06:00 -3°C° 0 mm 1 mps 669 mmHg 71%
    07:00 -2°C° 0 mm 1 mps 670 mmHg 69%
    08:00 -2°C° 0 mm 1 mps 670 mmHg 66%
    09:00 -1°C° 0 mm 1 mps 671 mmHg 64%
    10:00 -1°C° 0 mm 1 mps 671 mmHg 60%
    11:00 0°C° 0 mm 1 mps 671 mmHg 57%
    12:00 +1°C° 0 mm 1 mps 670 mmHg 54%
    13:00 +1°C° 0 mm 1 mps 670 mmHg 54%
    14:00 +1°C° 0 mm 1 mps 670 mmHg 54%
    15:00 +1°C° 0 mm 1 mps 670 mmHg 54%
    16:00 0°C° 0 mm 1 mps 671 mmHg 57%
    17:00 -1°C° 0 mm 1 mps 671 mmHg 59%
    18:00 -2°C° 0 mm 1 mps 671 mmHg 61%
    19:00 -3°C° 0 mm 1 mps 672 mmHg 61%
    20:00 -3°C° 0 mm 1 mps 672 mmHg 61%
    21:00 -5°C° 0 mm 2 mps 672 mmHg 62%
    22:00 -5°C° 0 mm 2 mps 672 mmHg 62%
    23:00 -6°C° 0 mm 2 mps 672 mmHg 62%

    Day after tomorrow, 25 November, Saturday

    Time Temperature Precipitation Wind Pressure Humidity
    00:00 -6°C° 0 mm 2 mps 672 mmHg 62%
    01:00 -6°C° 0 mm 2 mps 672 mmHg 62%
    02:00 -6°C° 0 mm 2 mps 673 mmHg 62%
    03:00 -6°C° 0 mm 2 mps 673 mmHg 63%
    04:00 -6°C° 0 mm 2 mps 673 mmHg 63%
    05:00 -6°C° 0 mm 2 mps 674 mmHg 64%
    06:00 -6°C° 0 mm 2 mps 674 mmHg 65%
    07:00 -5°C° 0 mm 2 mps 675 mmHg 63%
    08:00 -4°C° 0 mm 2 mps 675 mmHg 62%
    09:00 -4°C° 0 mm 2 mps 676 mmHg 60%
    10:00 -3°C° 0 mm 2 mps 676 mmHg 58%
    11:00 -2°C° 0 mm 2 mps 676 mmHg 55%
    12:00 -1°C° 0 mm 2 mps 675 mmHg 52%
    13:00 -1°C° 0 mm 2 mps 675 mmHg 53%
    14:00 -1°C° 0 mm 2 mps 675 mmHg 53%
    15:00 +1°C° 0 mm 2 mps 675 mmHg 53%
    16:00 -2°C° 0 mm 2 mps 676 mmHg 54%
    17:00 -3°C° 0 mm 2 mps 676 mmHg 55%
    18:00 -4°C° 0 mm 2 mps 676 mmHg 57%
    19:00 -5°C° 0 mm 2 mps 676 mmHg 57%
    20:00 -5°C° 0 mm 2 mps 677 mmHg 56%
    21:00 -3°C° 0 mm 1 mps 677 mmHg 56%
    22:00 -3°C° 0 mm 1 mps 677 mmHg 56%
    23:00 -3°C° 0 mm 1 mps 677 mmHg 56%

    26 November, Sunday

    Time Temperature Precipitation Wind Pressure Humidity
    00:00 -4°C° 0 mm 1 mps 677 mmHg 56%
    01:00 -4°C° 0 mm 1 mps 677 mmHg 56%
    02:00 -4°C° 0 mm 1 mps 677 mmHg 56%
    03:00 -4°C° 0 mm 1 mps 676 mmHg 56%
    04:00 -4°C° 0 mm 1 mps 676 mmHg 56%
    05:00 -4°C° 0 mm 1 mps 676 mmHg 55%
    06:00 -4°C° 0 mm 1 mps 676 mmHg 55%
    07:00 -3°C° 0 mm 1 mps 677 mmHg 53%
    08:00 -1°C° 0 mm 1 mps 677 mmHg 52%
    09:00 0°C° 0 mm 1 mps 677 mmHg 50%
    10:00 +1°C° 0 mm 1 mps 677 mmHg 47%
    11:00 +2°C° 0 mm 1 mps 677 mmHg 45%
    12:00 +4°C° 0 mm 1 mps 676 mmHg 42%
    13:00 +4°C° 0 mm 1 mps 676 mmHg 42%
    14:00 +4°C° 0 mm 1 mps 676 mmHg 43%
    15:00 +4°C° 0 mm 1 mps 675 mmHg 43%
    16:00 +3°C° 0 mm 1 mps 675 mmHg 44%
    17:00 +1°C° 0 mm 1 mps 675 mmHg 45%
    18:00 0°C° 0 mm 1 mps 676 mmHg 45%
    19:00 -1°C° 0 mm 1 mps 676 mmHg 44%
    20:00 -1°C° 0 mm 1 mps 676 mmHg 44%
    21:00 -1°C° 0 mm 1 mps 676 mmHg 43%
    22:00 -1°C° 0 mm 1 mps 676 mmHg 42%
    23:00 -1°C° 0 mm 1 mps 676 mmHg 42%

    27 November, Monday

    Time Temperature Precipitation Wind Pressure Humidity
    00:00 -2°C° 0 mm 1 mps 676 mmHg 42%
    01:00 -2°C° 0 mm 1 mps 676 mmHg 41%
    02:00 -2°C° 0 mm 1 mps 675 mmHg 41%
    03:00 -2°C° 0 mm 1 mps 675 mmHg 41%
    04:00 -2°C° 0 mm 1 mps 675 mmHg 41%
    05:00 -2°C° 0 mm 1 mps 675 mmHg 42%
    06:00 -2°C° 0 mm 1 mps 675 mmHg 42%
    07:00 -1°C° 0 mm 1 mps 675 mmHg 42%
    08:00 +1°C° 0 mm 1 mps 675 mmHg 41%
    09:00 +2°C° 0 mm 1 mps 675 mmHg 41%
    10:00 +3°C° 0 mm 1 mps 675 mmHg 40%
    11:00 +5°C° 0 mm 1 mps 674 mmHg 38%
    12:00 +5°C° 0 mm 2 mps 674 mmHg 37%
    13:00 +5°C° 0 mm 2 mps 674 mmHg 37%
    14:00 +5°C° 0 mm 2 mps 673 mmHg 37%
    15:00 +5°C° 0 mm 2 mps 673 mmHg 36%
    16:00 +3°C° 0 mm 2 mps 673 mmHg 36%
    17:00 +3°C° 0 mm 1 mps 673 mmHg 36%
    18:00 +1°C° 0 mm 1 mps 673 mmHg 36%
    19:00 +1°C° 0 mm 1 mps 673 mmHg 36%
    20:00 +1°C° 0 mm 1 mps 673 mmHg 36%
    21:00 0°C° 0 mm 1 mps 673 mmHg 36%
    22:00 0°C° 0 mm 1 mps 673 mmHg 36%
    23:00 0°C° 0 mm 1 mps 673 mmHg 37%

    28 November, Tuesday

    Time Temperature Precipitation Wind Pressure Humidity
    00:00 0°C° 0 mm 1 mps 673 mmHg 37%
    01:00 0°C° 0 mm 1 mps 673 mmHg 38%
    02:00 -1°C° 0 mm 1 mps 672 mmHg 38%
    03:00 -1°C° 0 mm 1 mps 672 mmHg 39%
    04:00 -1°C° 0 mm 1 mps 672 mmHg 39%
    05:00 -1°C° 0 mm 1 mps 672 mmHg 39%
    06:00 -1°C° 0 mm 1 mps 672 mmHg 40%
    07:00 0°C° 0 mm 1 mps 672 mmHg 41%
    08:00 +1°C° 0 mm 2 mps 672 mmHg 41%
    09:00 +2°C° 0 mm 2 mps 673 mmHg 42%
    10:00 +3°C° 0 mm 2 mps 672 mmHg 43%
    11:00 +4°C° 0 mm 2 mps 672 mmHg 44%
    12:00 +6°C° 0 mm 2 mps 672 mmHg 44%
    13:00 +6°C° 0 mm 2 mps 671 mmHg 47%
    14:00 +6°C° 0 mm 2 mps 671 mmHg 49%
    15:00 +6°C° 0 mm 2 mps 671 mmHg 51%
    16:00 +4°C° 0 mm 2 mps 671 mmHg 53%
    17:00 +3°C° 0 mm 2 mps 671 mmHg 55%
    18:00 +2°C° 0 mm 2 mps 672 mmHg 57%
    19:00 +1°C° 0 mm 2 mps 672 mmHg 58%
    20:00 +1°C° 0 mm 2 mps 672 mmHg 60%
    21:00 +2°C° 0 mm 1 mps 672 mmHg 61%
    22:00 +2°C° 0 mm 1 mps 672 mmHg 62%
    23:00 +2°C° 0 mm 1 mps 672 mmHg 63%
    Show more